TimeCST,TemperatureF,Dew PointF,Humidity,Sea Level PressureIn,VisibilityMPH,Wind Direction,Wind SpeedMPH,Gust SpeedMPH,PrecipitationIn,Events,Conditions,WindDirDegrees,DateUTC
12:53 AM,33.1,27.0,78,30.34,10.0,Calm,Calm,-,N/A,,Clear,0,2012-12-31 06:53:00
1:53 AM,33.1,26.1,75,30.34,10.0,Calm,Calm,-,N/A,,Clear,0,2012-12-31 07:53:00
2:53 AM,33.1,30.0,89,30.33,10.0,Calm,Calm,-,N/A,,Mostly Cloudy,0,2012-12-31 08:53:00
3:53 AM,34.0,30.0,85,30.33,10.0,Calm,Calm,-,N/A,,Overcast,0,2012-12-31 09:53:00
4:53 AM,34.0,28.9,82,30.33,10.0,Calm,Calm,-,N/A,,Overcast,0,2012-12-31 10:53:00
5:53 AM,35.1,27.0,72,30.33,10.0,Calm,Calm,-,N/A,,Clear,0,2012-12-31 11:53:00
6:53 AM,35.1,26.1,70,30.32,10.0,SSE,3.5,-,N/A,,Clear,160,2012-12-31 12:53:00
7:53 AM,36.0,27.0,70,30.33,10.0,South,5.8,-,N/A,,Mostly Cloudy,190,2012-12-31 13:53:00
8:53 AM,37.9,27.0,65,30.32,10.0,South,5.8,-,N/A,,Overcast,190,2012-12-31 14:53:00
9:53 AM,39.9,27.0,60,30.30,10.0,South,10.4,-,N/A,,Overcast,190,2012-12-31 15:53:00
10:53 AM,42.1,28.0,58,30.26,10.0,South,5.8,-,N/A,,Overcast,180,2012-12-31 16:53:00
11:53 AM,44.1,28.9,55,30.21,10.0,SSW,6.9,-,N/A,,Overcast,200,2012-12-31 17:53:00
12:53 PM,44.1,28.9,55,30.18,10.0,South,8.1,-,N/A,,Overcast,190,2012-12-31 18:53:00
1:53 PM,45.0,30.0,56,30.15,10.0,South,4.6,-,0.00,Rain,Light Rain,170,2012-12-31 19:53:00
2:53 PM,45.0,30.9,58,30.14,10.0,South,5.8,-,0.00,Rain,Light Rain,170,2012-12-31 20:53:00
3:53 PM,43.0,35.1,74,30.13,10.0,Calm,Calm,-,0.01,Rain,Light Rain,0,2012-12-31 21:53:00
4:40 PM,42.8,35.6,76,30.10,10.0,Calm,Calm,-,0.01,Rain,Light Rain,0,2012-12-31 22:40:00
4:53 PM,41.0,36.0,82,30.09,10.0,ESE,3.5,-,0.01,Rain,Light Rain,110,2012-12-31 22:53:00
5:41 PM,41.0,35.6,81,30.07,10.0,SE,3.5,-,0.00,,Overcast,130,2012-12-31 23:41:00
5:53 PM,41.0,36.0,82,30.07,10.0,ESE,4.6,-,0.00,,Overcast,110,2012-12-31 23:53:00
6:53 PM,42.1,36.0,79,30.06,10.0,ESE,4.6,-,N/A,,Overcast,120,2013-01-01 00:53:00
7:53 PM,41.0,37.9,89,30.04,10.0,Calm,Calm,-,0.01,,Overcast,0,2013-01-01 01:53:00
8:53 PM,41.0,39.0,93,30.07,4.0,NNW,5.8,-,0.07,Rain,Light Rain,330,2013-01-01 02:53:00
9:07 PM,39.2,39.2,100,30.07,5.0,NW,5.8,-,0.01,Rain,Light Rain,320,2013-01-01 03:07:00
9:27 PM,41.0,39.2,93,30.07,2.0,NNW,6.9,-,0.04,Rain,Rain,340,2013-01-01 03:27:00
9:39 PM,39.2,39.2,100,30.07,3.0,North,6.9,-,0.05,Rain,Light Rain,350,2013-01-01 03:39:00
9:53 PM,39.9,39.0,97,30.07,4.0,NNE,5.8,-,0.07,Rain,Light Rain,20,2013-01-01 03:53:00
10:13 PM,39.2,39.2,100,30.07,2.5,NNE,3.5,-,0.03,Rain,Rain,20,2013-01-01 04:13:00
10:30 PM,39.2,39.2,100,30.04,2.5,SE,5.8,-,0.07,Rain,Heavy Rain,130,2013-01-01 04:30:00
10:50 PM,39.2,39.2,100,30.05,3.0,ESE,4.6,-,0.11,Rain,Rain,120,2013-01-01 04:50:00
10:53 PM,39.9,39.0,97,30.06,3.0,East,4.6,-,0.11,Rain,Light Rain,100,2013-01-01 04:53:00
11:30 PM,41.0,39.2,93,30.04,5.0,ESE,3.5,-,0.04,Rain,Light Rain,110,2013-01-01 05:30:00
11:53 PM,41.0,39.9,96,30.04,4.0,SE,3.5,-,0.05,Rain,Light Rain,140,2013-01-01 05:53:00